Starlink 33827

operational
NORAD ID: 63798 Int'l Des: 2025-091 Owner: SPXS Country: US Constellation: starlink
LEOCIRCULAR

About Starlink 33827

Description loading...

Live Position

Loading 3D Globe...

Upcoming Passes

Altitude History

Altitude vs Time

uPlot chart will show altitude changes over time

Two-Line Element Set

1 63798U 25091Z 26062.09773874 .00039077 00000-0 14213-2 0 9990
2 63798 42.9944 89.7846 0000575 282.6465 77.4322 15.27597277 47894
Epoch: Mar 3, 2026 • Age: 29 hours

Current Status

Altitude 482.1 km
Velocity 7.63 km/s
Sub-Earth Point 19.07°N, 134.06°W
Launch Date May 2, 2025
Age 0.8 years
Type internet

Technical Details

Classification Payload
Mass 575.00 kg
Dry Mass 530.00 kg
Total Mass 575.00 kg
Length 0.30 m
Diameter 4.10 m
Span 29.00 m
Shape Box + pan
Manufacturer SPXS
Bus Type Starlink V2MO
Phase Status In Orbit
Owner/State SPXS/US

Large Constellations

Loading constellations...